Temperature
15 15 15 15 15 15 15 15 15 15 15 15 15 15 15 15 15 15 15 15 15 15 15 15 15 15 15 15 15 15 15 15 15 15 15 15 15 15 15 15 15 15 15
15 15 14 15 15 15 15 15 15 15 15 15 15 15 15 15 15 15 15 15 15 15 15 15 15 15 15 15 15 15 15 15 15 15 15 15 15 15 15 15 15 15 15
15 15 14 14 15 15 15 15 15 15 15 15 15 15 15 15 15 15 15 15 15 15 15 15 15 15 15 15 15 15 15 15 15 15 15 15 15 15 15 15 15 15 15
15 14 14 14 14 14 15 15 15 15 15 15 15 15 15 15 15 14 14 14 14 14 14 15 15 14 15 15 15 15 15 15 15 15 15 15 14 14 14 14 14 14 14
14 14 14 14 14 14 14 15 15 15 14 15 15 15 14 14 14 14 14 14 14 14 14 14 14 14 14 14 14 14 14 14 15 14 14 14 14 14 14 14 14 14 14
14 14 14 14 14 14 14 14 14 14 14 14 14 14 14 14 14 14 14 14 14 14 14 14 14 14 14 14 14 14 14 14 14 14 14 14 14 14 14 14 14 14 14
14 13 13 13 13 14 14 14 14 14 14 14 14 14 14 14 14 14 14 14 14 14 14 14 14 14 14 14 14 14 14 14 14 14 14 14 14 14 14 14 14 14 14
13 13 13 13 13 13 13 13 14 14 14 14 13 13 14 14 14 14 14 14 13 13 13 14 14 14 14 14 14 14 14 14 14 14 14 14 14 14 14 14 14 14 14
13 13 13 13 13 13 13 13 13 13 13 13 13 13 13 13 13 13 13 13 13 13 13 13 13 13 13 13 13 13 13 13 14 14 14 14 13 13 13 13 13 14 13
12 12 12 12 12 12 12 13 13 13 13 13 13 13 13 13 13 13 13 13 13 13 13 13 13 13 13 13 13 13 13 13 13 13 13 13 13 13 13 13 13 13 13
12 12 12 12 12 12 12 12 12 12 12 12 12 12 12 12 13 13 13 13 13 13 13 13 13 13 13 13 13 13 13 13 13 13 13 13 13 13 13 13 13 13 13
11 11 11 12 12 12 12 12 12 12 12 12 12 12 12 12 12 12 12 12 12 13 13 13 13 13 13 13 13 13 13 13 13 13 13 13 13 13 13 13 13 13 13
11 11 11 11 11 11 11 11 11 11 11 11 12 12 12 12 12 12 12 12 12 12 12 12 12 12 12 12 12 13 13 13 13 13 13 13 13 13 13 13 13 13 12
10 10 11 11 11 11 11 11 11 11 11 11 11 11 11 11 11 11 12 12 12 12 12 12 12 12 12 12 12 12 12 12 12 12 12 12 12 12 12 12 12 12 12
10 10 10 10 11 11 11 11 11 11 11 11 11 11 11 11 11 11 11 11 11 11 11 11 12 12 12 12 12 12 12 12 12 12 12 12 12 12 12 12 12 12 12
9 9 9 10 10 10 10 10 10 10 11 11 11 10 11 11 11 11 11 11 11 11 11 11 11 11 11 11 11 11 11 11 11 12 12 12 12 12 12 12 12 12 12
8 8 9 9 9 10 10 10 10 10 10 10 10 10 10 10 10 10 10 10 10 10 10 11 11 11 11 11 11 11 11 11 11 11 11 11 11 11 11 11 11 11 11
7 8 8 8 9 9 9 9 10 10 10 10 10 10 10 10 10 10 10 10 10 10 10 10 10 10 10 10 10 10 10 11 11 11 11 11 11 11 11 11 11 11 11
6 7 7 8 8 8 9 9 9 9 9 9 9 9 9 9 9 9 9 9 9 9 9 9 9 10 10 10 10 10 10 10 10 10 11 11 11 11 11 11 11 11 11
6 6 6 7 7 8 8 8 8 9 9 9 9 9 9 9 9 9 9 9 9 9 9 9 9 9 9 9 9 9 9 10 10 10 10 10 10 10 11 11 11 11 10
5 5 6 6 7 7 7 7 8 8 8 8 8 8 8 8 8 8 8 8 8 8 8 8 8 8 9 9 9 9 9 9 9 9 10 10 10 10 10 10 10 10 10
4 4 5 5 6 6 6 6 7 7 7 7 8 8 7 8 8 8 8 8 8 8 8 8 8 8 8 8 8 8 8 8 9 9 9 9 9 9 9 9 10 10 10
3 3 4 4 5 5 5 5 6 6 7 7 7 7 7 7 7 7 7 7 7 7 7 7 7 7 7 8 8 8 8 8 8 8 9 9 9 9 9 9 9 9 9
2 2 3 3 4 4 5 5 5 5 5 6 6 6 6 6 6 6 6 7 7 7 7 7 7 7 7 7 7 8 8 8 8 7 8 8 8 8 9 9 9 9 9
1 2 2 2 3 3 4 4 4 4 4 5 5 5 6 6 6 6 6 6 6 6 6 6 6 6 7 7 7 7 7 7 8 7 7 8 8 8 8 8 8 8 8
0 1 1 2 2 3 3 3 3 3 3 4 4 5 5 5 5 5 5 5 6 6 6 6 6 6 6 6 7 7 7 7 7 7 7 7 7 7 8 8 8 8 8
Wind_Speed
2 2 6 8 8 8 8 9 9 10 10 10 10 11 10 10 9 9 8 8 9 10 10 11 11 11 11 11 12 13 13 13 13 13 13 14 14 15 15 15 14 14 15
3 4 6 9 9 9 9 9 9 9 10 10 11 10 9 9 8 8 8 8 8 9 10 10 10 11 11 11 12 12 13 13 13 13 13 12 13 14 14 14 13 13 15
3 5 7 9 9 9 9 9 9 9 10 10 10 9 9 8 8 8 7 8 8 9 9 9 9 10 10 11 11 12 12 12 12 12 11 10 11 13 13 13 13 14 14
4 5 6 9 9 9 9 8 8 8 9 9 9 9 8 8 8 8 7 7 8 9 9 9 9 9 10 10 11 11 12 12 11 11 10 9 9 11 12 12 13 13 13
4 5 6 9 9 9 9 8 8 7 8 8 8 7 7 7 7 8 7 7 7 8 8 8 9 9 9 9 9 10 11 11 11 10 9 8 8 10 11 12 12 13 13
4 4 5 8 8 8 8 8 8 7 7 7 7 7 7 6 6 7 7 7 7 8 8 8 8 8 9 9 8 9 10 10 10 9 8 7 7 9 10 11 12 12 12
4 4 4 7 7 7 8 7 7 7 7 6 6 6 6 6 6 6 7 7 7 7 7 7 7 8 8 8 8 8 9 9 9 8 7 6 7 8 10 11 11 11 11
5 5 5 5 6 6 6 7 7 6 6 6 6 6 6 6 6 6 6 6 6 6 7 7 7 7 8 8 8 7 8 8 8 7 6 6 7 8 8 9 10 10 10
6 6 6 6 6 5 5 5 6 6 5 5 6 6 6 6 6 5 5 5 5 6 6 7 7 7 7 8 8 8 7 7 7 6 5 5 6 7 8 9 9 9 10
5 5 6 6 6 5 4 4 4 5 6 5 5 5 6 6 6 5 5 5 5 5 6 6 6 7 7 7 7 7 7 6 6 5 4 5 6 7 7 8 9 9 9
4 4 5 5 6 5 4 3 3 4 5 5 4 4 5 5 5 5 5 5 5 5 5 5 5 6 6 6 6 6 6 5 5 4 4 5 6 6 7 7 8 8 8
4 3 3 4 5 5 4 4 4 4 4 4 4 4 4 4 4 4 4 4 5 5 5 5 5 5 5 5 5 5 4 4 3 3 3 4 5 5 6 7 7 8 8
3 4 3 3 4 4 4 4 4 4 4 4 4 4 4 4 4 4 4 3 4 4 4 4 4 4 4 4 4 4 3 3 2 1 2 3 4 5 6 6 7 8 8
4 4 4 3 3 3 3 3 3 3 4 3 3 4 3 3 3 3 3 3 3 3 3 4 4 4 4 4 4 3 3 2 1 1 1 2 3 4 5 6 6 8 8
5 5 4 3 2 2 3 3 3 3 3 2 2 2 3 2 1 2 2 2 2 2 3 3 3 3 3 3 3 3 2 2 1 1 0 1 2 4 5 5 6 7 7
6 6 6 3 3 2 2 2 2 2 2 2 2 2 2 2 1 1 1 1 1 1 2 3 3 2 2 2 2 2 2 1 1 1 1 1 2 3 4 5 5 6 7
7 6 6 5 4 3 2 2 2 2 2 2 1 1 1 1 1 1 1 0 0 1 2 3 3 3 2 2 2 1 1 1 1 0 0 1 1 2 4 4 5 6 6
7 7 7 6 5 4 3 2 2 2 2 2 1 1 1 1 1 1 0 0 1 2 2 2 1 1 1 1 1 0 1 1 1 1 1 0 1 1 2 3 4 5 6
7 7 7 7 6 5 4 3 2 2 2 2 2 2 1 0 1 1 1 1 1 2 1 2 1 1 1 1 1 0 1 1 1 1 1 1 1 1 1 2 3 3 6
7 7 7 8 7 6 4 3 2 1 2 2 2 2 2 1 1 1 1 1 1 1 1 1 2 1 1 1 1 1 1 1 1 1 0 1 1 1 2 2 1 2 4
8 9 9 9 8 6 4 3 2 2 2 1 2 3 2 2 2 1 1 1 1 2 2 2 2 1 1 1 1 1 2 1 1 1 1 1 1 1 2 2 2 1 1
8 9 8 8 8 6 4 3 3 3 2 2 2 3 3 3 2 2 2 2 2 2 2 3 2 1 1 1 1 1 0 1 1 1 1 1 1 1 1 1 1 1 1
9 9 8 8 8 7 6 4 4 3 2 2 2 2 4 4 3 3 2 2 3 3 4 4 4 3 3 2 1 2 2 3 1 1 1 1 1 1 1 1 1 1 2
8 8 8 8 8 7 6 5 4 3 3 4 4 3 4 4 3 3 3 2 3 3 4 5 4 3 4 3 2 1 1 2 2 1 1 1 1 1 1 1 1 2 2
8 7 7 7 7 7 6 5 4 4 4 4 4 3 3 3 3 3 3 3 3 3 4 4 4 4 4 4 3 2 1 0 1 2 2 2 1 2 2 2 2 2 2
8 7 7 8 8 8 7 6 5 5 6 6 5 4 4 3 3 3 3 3 3 3 4 4 5 6 5 5 3 3 3 2 2 2 3 3 3 2 2 2 2 3 3
Wind_Direction
204 203 162 134 124 117 112 107 101 96 94 95 100 103 104 104 103 102 102 100 98 100 98 96 97 95 94 93 93 94 96 96 95 94 95 97 97 97 96 94 91 89 91
166 172 152 135 127 120 115 108 102 96 93 93 94 96 99 100 103 104 102 100 101 101 99 97 97 97 96 96 96 95 95 95 94 92 91 94 99 101 100 98 96 97 95
128 144 138 132 128 123 116 110 104 99 95 92 91 90 91 92 97 100 99 95 97 99 98 98 98 97 97 100 101 99 97 97 96 92 89 90 100 105 103 101 100 99 97
123 129 130 130 128 123 117 112 108 103 99 95 91 88 88 88 89 92 94 94 94 94 93 96 98 99 101 104 104 103 103 101 98 93 87 89 99 107 107 106 105 103 99
104 117 130 132 128 124 120 118 114 108 102 99 95 92 91 90 88 86 86 89 92 93 93 96 96 99 101 106 107 108 109 105 101 94 90 91 98 109 109 108 107 105 102
76 91 126 132 131 127 124 120 118 114 107 103 99 97 95 94 94 87 82 84 85 91 97 98 98 101 100 103 109 111 112 109 104 96 93 96 103 112 114 113 112 109 107
71 65 108 118 126 128 128 124 121 117 111 108 104 101 97 96 94 89 86 84 83 88 95 100 101 103 104 102 103 109 111 110 106 99 95 103 115 115 115 115 115 113 113
74 59 71 99 111 120 123 126 124 118 113 108 102 98 95 95 94 88 88 86 86 89 95 99 102 103 103 100 98 101 108 110 111 107 104 110 122 123 121 120 119 117 116
55 54 54 64 76 93 110 120 120 117 113 107 99 94 92 88 88 84 85 85 89 93 96 98 100 101 98 97 97 96 103 110 111 112 113 119 129 132 128 123 123 120 118
47 45 45 49 58 62 73 101 106 113 109 103 95 90 91 89 86 81 79 82 92 92 96 97 100 101 96 93 95 94 98 105 110 113 116 124 133 138 135 131 129 129 127
29 30 34 36 41 48 58 69 82 87 92 94 91 90 88 83 82 81 81 78 78 86 92 97 99 98 95 90 93 92 92 99 114 119 129 133 135 139 142 140 137 133 133
357 358 20 29 32 39 49 50 61 68 71 77 80 82 80 82 79 81 85 81 79 81 85 93 96 95 87 85 87 88 84 89 107 125 147 148 150 147 148 144 139 135 131
338 346 358 18 30 44 39 47 46 53 53 64 75 78 80 81 75 70 74 69 66 74 76 79 80 85 90 89 86 84 80 86 99 121 157 165 165 161 156 149 148 145 137
347 337 344 3 24 38 44 46 49 47 47 44 57 77 85 75 67 64 68 59 57 61 75 80 83 85 90 92 93 87 78 78 90 95 134 154 171 171 169 165 156 155 148
344 336 333 351 1 23 42 36 42 35 38 42 43 69 93 87 77 71 65 65 62 70 88 91 90 89 94 92 89 91 84 69 66 71 204 196 192 179 174 174 167 165 159
340 334 334 336 342 8 29 25 27 24 27 42 33 40 84 102 102 93 69 68 66 91 106 108 114 108 108 106 94 85 82 73 58 31 318 269 229 205 190 185 179 176 169
340 340 340 335 348 349 357 3 19 12 21 26 13 14 58 95 121 107 110 88 68 120 112 100 96 95 100 107 97 80 68 65 58 15 292 248 247 238 209 197 191 185 176
352 351 347 347 346 339 335 348 358 1 14 13 359 349 7 72 124 116 140 196 151 131 118 121 127 109 94 107 114 54 60 60 53 59 82 142 163 210 224 207 197 194 187
356 356 354 354 347 338 336 344 351 357 7 2 358 344 330 309 203 168 209 219 159 128 130 153 132 138 136 117 121 60 34 35 30 48 86 102 164 173 189 211 207 206 198
1 4 2 1 356 348 349 348 344 348 343 354 351 332 319 296 261 221 225 211 166 158 171 158 153 135 160 161 90 37 360 355 25 360 52 98 126 166 163 163 171 209 205
9 9 5 2 357 360 354 342 314 288 275 292 336 332 315 299 268 252 251 217 198 193 198 181 157 149 171 154 110 41 355 344 336 323 11 75 78 95 114 133 145 159 197
5 3 -0 358 354 354 347 324 308 294 267 266 318 325 312 300 279 257 225 221 213 203 201 195 170 166 203 178 152 131 347 337 334 318 300 209 154 94 85 107 127 157 175
4 358 352 348 348 348 350 347 346 347 333 319 308 298 309 296 287 282 253 228 214 200 206 207 197 189 198 236 212 176 173 210 273 294 268 241 214 165 160 132 148 177 183
352 349 349 346 348 350 355 359 356 340 318 304 297 284 295 295 291 286 275 244 221 214 209 212 209 202 186 205 246 257 213 172 187 242 294 284 261 230 233 198 184 212 204
348 349 347 346 350 351 351 350 348 335 317 316 315 293 282 287 287 282 274 255 238 228 216 214 213 208 200 202 204 214 205 333 225 196 236 256 286 269 249 239 222 215 221
352 355 353 352 349 349 347 342 340 330 325 320 316 304 290 277 275 278 274 257 246 237 220 217 217 216 214 209 207 204 193 189 200 198 217 233 246 266 266 243 225 220 224
Height
1525 1526 1527 1529 1530 1531 1533 1534 1534 1535 1536 1536 1537 1538 1538 1539 1540 1540 1541 1542 1542 1543 1543 1544 1544 1545 1545 1546 1546 1547 1548 1548 1549 1550 1550 1551 1552 1552 1553 1553 1553 1554 1555
1525 1526 1527 1529 1530 1531 1533 1534 1535 1535 1536 1537 1537 1538 1539 1540 1540 1541 1542 1542 1543 1544 1544 1544 1545 1545 1546 1547 1547 1548 1549 1549 1550 1551 1552 1552 1553 1554 1554 1555 1555 1556 1556
1524 1526 1527 1529 1530 1532 1533 1534 1535 1536 1536 1537 1538 1539 1539 1540 1541 1541 1542 1543 1544 1544 1545 1545 1546 1546 1547 1547 1548 1549 1550 1550 1551 1552 1553 1553 1554 1555 1555 1556 1556 1557 1558
1525 1526 1527 1529 1530 1532 1533 1534 1535 1536 1536 1537 1538 1539 1539 1540 1541 1542 1542 1543 1544 1544 1545 1545 1546 1547 1547 1548 1549 1550 1550 1551 1552 1553 1554 1554 1555 1556 1557 1557 1558 1558 1559
1525 1527 1528 1529 1530 1532 1533 1534 1535 1536 1536 1537 1538 1539 1540 1540 1541 1542 1542 1543 1544 1544 1545 1545 1546 1547 1548 1549 1549 1550 1551 1552 1553 1554 1555 1555 1556 1557 1557 1558 1559 1559 1560
1525 1527 1528 1529 1531 1532 1533 1533 1534 1535 1536 1537 1538 1538 1539 1540 1541 1542 1542 1543 1544 1544 1545 1546 1546 1547 1548 1549 1550 1551 1552 1552 1553 1554 1555 1556 1557 1558 1558 1559 1559 1560 1561
1526 1527 1528 1529 1530 1531 1532 1533 1534 1535 1536 1536 1537 1538 1539 1539 1540 1541 1542 1543 1543 1544 1545 1546 1546 1547 1548 1549 1550 1551 1552 1553 1554 1555 1556 1557 1557 1558 1559 1560 1560 1561 1562
1526 1527 1528 1529 1530 1531 1532 1533 1533 1534 1535 1535 1536 1537 1538 1539 1540 1540 1541 1542 1543 1544 1544 1545 1546 1547 1548 1549 1550 1551 1552 1553 1554 1555 1556 1557 1558 1558 1559 1560 1561 1561 1562
1526 1527 1528 1529 1529 1530 1531 1532 1533 1533 1534 1535 1536 1536 1537 1538 1539 1539 1540 1541 1542 1543 1544 1545 1546 1547 1548 1549 1550 1551 1552 1553 1554 1555 1556 1557 1558 1559 1559 1560 1561 1562 1562
1526 1526 1527 1528 1529 1529 1530 1531 1531 1532 1533 1534 1534 1535 1536 1537 1538 1539 1539 1540 1541 1542 1543 1544 1545 1546 1547 1548 1549 1550 1552 1553 1554 1555 1556 1557 1558 1558 1559 1560 1561 1561 1562
1526 1526 1526 1527 1528 1528 1529 1530 1531 1531 1531 1533 1533 1534 1535 1536 1537 1537 1538 1539 1540 1541 1542 1543 1544 1545 1546 1547 1548 1550 1551 1552 1553 1554 1555 1556 1557 1558 1559 1559 1560 1561 1562
1524 1525 1526 1526 1527 1527 1528 1529 1529 1530 1530 1531 1532 1533 1534 1534 1535 1536 1537 1538 1539 1540 1541 1542 1543 1544 1545 1546 1547 1549 1550 1551 1552 1553 1554 1556 1556 1557 1558 1559 1560 1561 1562
1524 1524 1525 1525 1526 1526 1527 1527 1528 1528 1529 1530 1531 1532 1532 1533 1534 1535 1535 1536 1537 1538 1539 1540 1541 1542 1544 1545 1546 1547 1549 1550 1551 1552 1553 1554 1555 1556 1557 1558 1559 1560 1561
1523 1523 1523 1524 1524 1525 1525 1526 1526 1527 1527 1528 1529 1530 1530 1531 1532 1533 1534 1535 1535 1536 1537 1538 1539 1541 1542 1543 1545 1546 1547 1548 1549 1550 1552 1553 1554 1555 1556 1557 1558 1559 1560
1521 1521 1522 1522 1523 1523 1524 1524 1525 1525 1526 1526 1527 1528 1528 1529 1530 1531 1532 1533 1534 1534 1535 1536 1538 1539 1540 1541 1543 1544 1545 1547 1548 1549 1550 1551 1553 1554 1555 1556 1557 1558 1559
1519 1519 1520 1520 1521 1521 1521 1522 1522 1523 1524 1524 1525 1525 1526 1527 1528 1529 1530 1531 1531 1532 1533 1535 1536 1537 1538 1539 1541 1542 1543 1544 1546 1547 1548 1549 1551 1552 1553 1555 1556 1557 1558
1518 1518 1518 1518 1518 1519 1519 1520 1520 1521 1521 1522 1523 1523 1524 1524 1525 1526 1527 1528 1529 1530 1531 1532 1533 1535 1536 1537 1538 1540 1541 1542 1543 1545 1546 1547 1548 1550 1551 1553 1554 1555 1556
1516 1516 1515 1516 1516 1516 1517 1517 1518 1518 1519 1520 1520 1521 1522 1522 1523 1524 1524 1525 1527 1528 1529 1530 1531 1532 1533 1534 1536 1537 1538 1540 1541 1542 1543 1545 1546 1547 1549 1550 1552 1553 1554
1515 1514 1513 1513 1513 1513 1514 1514 1515 1516 1516 1517 1518 1518 1519 1520 1520 1521 1522 1523 1524 1525 1526 1527 1528 1530 1530 1532 1533 1534 1536 1537 1538 1539 1541 1542 1543 1545 1546 1548 1549 1550 1552
1513 1512 1511 1511 1510 1511 1511 1511 1512 1513 1513 1514 1515 1515 1516 1517 1517 1518 1519 1520 1521 1522 1523 1524 1525 1527 1528 1529 1530 1532 1533 1534 1535 1537 1538 1539 1540 1542 1543 1545 1546 1547 1549
1511 1510 1509 1508 1508 1508 1508 1508 1508 1508 1509 1510 1511 1512 1513 1513 1514 1514 1515 1516 1517 1518 1520 1521 1522 1524 1525 1527 1528 1529 1530 1531 1532 1533 1535 1536 1537 1539 1540 1542 1543 1544 1545
1509 1508 1507 1506 1505 1505 1505 1505 1505 1505 1505 1506 1507 1508 1509 1509 1510 1511 1511 1512 1514 1515 1516 1518 1519 1520 1522 1524 1525 1526 1527 1529 1529 1530 1531 1533 1534 1536 1537 1538 1540 1541 1543
1507 1506 1505 1504 1503 1503 1502 1502 1501 1501 1502 1502 1502 1503 1504 1505 1506 1507 1507 1509 1510 1511 1512 1513 1515 1516 1518 1520 1522 1523 1524 1524 1525 1526 1528 1529 1531 1532 1534 1535 1536 1538 1539
1507 1506 1504 1503 1501 1500 1500 1499 1498 1497 1496 1497 1498 1498 1499 1501 1501 1502 1503 1504 1506 1507 1508 1509 1511 1513 1514 1516 1518 1519 1520 1521 1523 1523 1524 1526 1527 1528 1530 1531 1533 1534 1535
1506 1504 1503 1501 1499 1498 1497 1496 1495 1494 1494 1494 1494 1494 1495 1496 1497 1498 1499 1500 1501 1502 1504 1505 1507 1509 1510 1511 1513 1514 1515 1517 1518 1519 1520 1521 1523 1525 1526 1528 1529 1530 1531
1505 1503 1501 1499 1497 1496 1495 1493 1492 1491 1490 1490 1490 1489 1490 1491 1492 1493 1494 1495 1496 1497 1499 1500 1502 1504 1505 1507 1509 1510 1511 1512 1514 1515 1516 1517 1518 1520 1522 1523 1525 1526 1527